GFSFLT2_700_spd_024.txt.gz
Wind_Speed
28 35 36 36 46 39 8 10 12 28 31 26 15 31 33 31 20 24 21 19 18 16 20 24 26 26 25 22 24 30 30 29
35 31 32 29 34 35 31 17 18 16 26 21 25 31 25 29 28 24 26 27 24 15 15 17 21 24 27 27 25 22 26 28
28 42 39 39 32 40 31 29 13 12 16 22 25 22 27 27 26 28 24 25 22 14 15 15 21 25 26 28 29 29 28 24
37 35 34 39 35 42 29 32 35 21 9 7 8 17 22 22 24 26 25 25 24 20 14 18 21 24 25 26 26 27 26 28
20 31 29 42 41 38 37 26 31 22 7 6 7 13 15 19 19 24 30 33 32 26 18 15 18 22 24 26 28 30 30 30
30 30 31 40 41 38 41 39 30 28 23 11 9 7 10 9 12 13 19 23 30 35 31 24 23 18 19 22 28 32 36 36
25 15 15 30 41 42 43 41 38 30 28 26 14 13 11 10 10 16 18 15 18 18 26 29 29 28 25 23 25 32 38 39
23 15 11 16 21 28 38 41 38 36 31 20 21 25 28 22 18 20 23 22 17 21 22 28 29 28 30 30 26 30 43 41
23 19 16 23 30 28 28 30 30 35 29 26 26 24 24 25 25 26 32 28 22 21 21 24 29 29 30 32 27 27 38 44
11 12 15 21 23 27 33 29 29 27 25 23 23 24 24 24 26 22 19 25 29 29 24 25 29 31 34 32 30 28 35 36
19 20 8 11 10 11 17 27 27 23 21 21 22 26 30 25 24 21 16 19 22 26 27 28 31 33 32 32 32 30 36 33
13 20 14 10 25 10 7 14 17 16 16 15 18 18 22 21 21 18 18 19 16 21 28 28 29 33 35 32 34 32 31 36
24 19 17 14 6 7 14 7 7 11 13 28 27 20 14 21 26 27 23 25 24 19 26 27 25 31 32 31 31 32 32 32
24 25 27 14 14 14 10 10 14 13 15 17 24 29 28 17 19 28 27 28 28 25 20 30 27 27 32 31 32 34 36 38
20 26 19 17 26 20 23 19 18 27 21 19 17 19 21 28 24 23 33 30 28 25 21 26 28 30 30 30 29 32 36 37
28 31 29 22 23 21 20 34 28 25 19 18 18 19 23 26 26 27 35 30 31 27 27 25 28 30 30 29 30 30 28 29
29 30 28 27 29 24 22 21 40 39 29 22 26 27 30 31 31 28 31 33 32 29 26 24 32 31 31 29 28 29 30 29
33 22 25 27 25 33 31 31 35 39 41 41 29 22 22 27 29 28 28 30 31 29 25 26 31 34 35 33 33 32 30 29
26 23 25 26 29 33 34 34 33 34 36 41 40 36 31 30 24 24 27 30 31 30 30 31 30 31 31 32 33 32 31 29

GFSFLT2_700_spd_030.txt.gz
Wind_Speed
43 36 40 38 46 39 30 28 23 32 40 32 35 35 30 26 31 32 32 33 32 32 33 24 27 20 14 20 26 30 30 28
40 34 38 41 38 35 36 20 19 26 34 39 35 41 37 28 28 31 35 35 32 33 32 22 21 23 17 15 22 24 26 26
39 51 44 42 39 40 33 31 14 13 21 26 39 40 39 39 35 31 35 37 33 31 34 22 22 26 22 18 17 22 25 24
38 41 42 42 46 40 30 32 32 26 5 0 20 34 32 30 38 30 35 35 32 30 33 34 24 26 26 24 21 18 19 20
38 37 45 49 42 41 37 32 32 20 11 7 17 21 24 26 33 37 29 34 31 29 30 34 25 23 25 25 23 24 24 23
27 35 38 44 43 42 39 38 29 32 10 12 10 9 16 19 26 26 36 31 32 28 32 32 31 25 25 25 29 29 27 27
45 34 30 39 42 43 48 38 38 29 27 18 15 18 17 19 22 24 29 31 32 27 33 31 28 26 27 26 28 31 31 28
25 34 26 24 42 42 42 41 34 32 25 19 20 21 18 20 20 23 21 21 24 30 27 29 33 27 26 23 23 27 27 25
24 23 26 26 25 40 41 40 35 35 26 26 23 25 24 17 13 10 14 17 16 20 32 33 31 32 32 25 21 22 21 20
18 17 19 23 24 18 35 36 36 29 29 18 20 24 21 17 14 10 11 11 11 13 18 28 36 36 36 34 31 29 27 25
8 13 15 17 20 25 14 28 34 32 25 18 15 16 15 12 14 14 14 16 16 16 19 18 19 20 18 22 29 31 32 29
8 7 12 13 15 14 24 17 4 10 15 16 12 10 11 18 21 22 19 22 21 21 23 23 25 28 27 27 35 37 36 34
12 8 3 10 8 17 21 6 10 11 14 14 13 17 19 26 25 27 26 24 26 25 27 31 31 34 42 37 35 35 31 31
19 14 3 1 5 10 10 10 17 18 14 17 21 17 13 23 24 23 23 24 28 30 29 31 34 36 40 39 38 37 34 33
25 25 5 5 8 2 1 4 9 13 13 7 2 12 14 26 26 22 18 20 27 32 34 33 33 30 31 31 34 35 34 33
14 26 18 12 14 5 5 7 6 6 7 3 1 9 31 36 29 17 8 25 19 19 26 35 33 30 30 30 33 35 35 31
16 19 20 16 16 16 14 12 8 15 12 10 17 18 23 18 15 19 18 18 14 16 18 27 31 31 31 28 27 34 36 33
23 20 20 21 19 21 25 22 20 19 22 22 25 24 17 16 16 13 10 11 13 15 22 22 24 30 31 29 28 27 33 33
30 32 32 29 26 16 18 20 28 27 28 31 30 26 23 23 20 18 12 14 18 20 21 22 20 24 29 28 28 26 31 33

GFSFLT2_700_spd_033.txt.gz
Wind_Speed
48 38 41 43 48 39 20 20 11 26 38 34 37 40 34 32 27 38 38 34 34 26 17 19 24 18 10 22 26 27 26 27
36 41 39 44 37 35 34 10 10 19 36 45 37 40 38 34 34 39 39 39 38 30 21 18 19 14 12 15 26 27 27 27
36 52 55 43 38 45 33 29 6 5 22 42 41 35 34 38 36 45 45 48 36 33 28 17 17 18 16 15 24 28 27 24
50 37 49 38 46 45 33 31 33 26 25 20 18 45 36 41 35 28 45 47 40 35 29 20 24 20 21 17 18 25 25 26
39 40 34 56 46 48 39 32 34 15 15 19 19 27 35 40 38 34 25 46 42 37 30 19 25 20 24 21 20 20 24 25
17 36 33 48 46 44 37 39 39 32 26 7 8 25 35 34 32 37 34 38 42 38 31 22 25 21 25 27 25 25 24 23
31 28 25 28 51 44 48 37 40 36 23 15 9 23 29 28 28 30 40 27 38 37 32 26 19 25 25 24 29 28 28 26
19 31 30 30 49 46 43 43 35 35 33 26 18 20 23 24 29 31 32 34 30 36 31 26 20 18 25 19 21 24 30 28
5 17 13 10 27 49 45 40 41 35 35 26 27 26 23 28 29 29 31 31 32 30 38 36 28 25 22 21 16 19 24 25
7 3 2 16 26 11 41 35 34 42 15 30 30 28 26 28 31 30 29 30 29 27 25 35 40 40 33 26 22 18 17 20
7 3 1 20 8 7 18 19 8 26 27 35 37 34 30 25 26 30 30 30 29 26 22 24 27 30 30 33 28 24 24 23
8 5 2 12 4 11 11 17 11 11 36 37 35 37 31 29 30 27 27 30 30 27 23 22 22 21 18 30 33 35 30 29
8 7 7 10 16 9 9 9 17 25 32 34 33 27 29 30 29 32 32 27 26 33 30 28 25 24 24 26 27 28 26 26
3 5 5 15 15 23 14 13 20 26 31 31 27 23 27 27 27 27 25 25 26 27 28 29 32 29 30 32 33 34 33 36
6 8 10 7 22 18 6 3 14 20 24 19 21 23 26 23 24 28 28 26 25 23 29 31 35 39 38 39 37 35 38 39
9 13 4 9 5 4 10 6 2 8 10 16 16 16 23 25 20 21 24 25 26 23 25 29 35 37 39 40 44 46 46 44
17 8 8 7 11 9 9 9 12 9 8 3 8 11 18 26 21 24 23 25 25 24 22 19 21 30 31 30 30 29 27 32
27 20 24 16 16 18 17 14 12 16 14 11 9 10 12 20 27 23 24 26 20 21 19 14 15 16 22 26 26 26 26 24
38 36 35 29 27 24 19 21 14 16 17 16 19 17 12 21 30 35 35 31 21 17 15 14 14 14 16 21 24 25 23 25

GFSFLT2_700_spd_036.txt.gz
Wind_Speed
51 38 35 42 51 38 18 18 13 23 21 29 35 23 23 30 51 42 40 34 30 23 20 23 19 21 25 23 30 30 29 29
25 43 40 47 33 41 39 7 5 10 28 30 43 44 34 29 30 39 45 37 31 30 21 16 17 16 18 20 29 29 30 30
34 40 54 39 46 40 35 28 7 3 23 29 42 43 41 37 33 31 49 36 33 33 26 19 19 21 18 21 25 32 32 31
37 42 35 45 33 41 26 21 31 17 25 15 11 23 28 38 44 34 40 36 31 36 31 27 24 20 19 21 23 30 29 29
28 30 30 25 48 40 47 32 36 21 27 26 28 22 27 37 44 38 38 41 39 42 37 34 26 21 19 21 22 25 28 30
12 16 22 26 33 45 43 36 34 44 43 40 22 29 23 31 43 45 42 32 44 40 40 38 26 23 16 19 22 23 28 28
22 28 23 20 21 40 41 43 39 39 41 46 24 22 16 26 39 44 44 31 39 42 41 39 24 28 18 19 20 22 24 25
16 16 20 14 24 19 43 45 40 37 35 29 22 17 18 22 29 35 35 36 34 36 40 40 27 27 24 21 21 24 23 24
6 10 14 6 6 17 37 40 44 34 31 25 21 18 21 25 27 28 30 33 34 37 37 38 29 22 28 24 17 21 24 24
8 2 8 11 9 12 18 20 25 24 37 32 22 24 27 25 27 29 30 34 36 35 35 38 31 26 21 23 16 14 19 22
5 8 12 11 6 8 10 14 9 15 30 25 34 32 32 32 33 33 31 32 35 38 40 39 36 30 26 24 23 22 20 20
7 3 5 12 9 8 25 18 21 21 32 34 37 39 35 33 36 39 38 35 33 31 35 40 46 43 39 34 32 26 25 21
3 7 11 16 5 9 13 8 23 31 35 36 37 39 39 34 34 34 35 35 33 32 32 32 34 35 37 32 30 30 30 27
5 7 5 14 21 32 15 8 17 26 29 34 38 40 40 37 35 33 33 32 31 29 28 29 31 30 29 27 29 32 32 32
8 11 11 13 25 18 11 19 9 15 19 20 28 35 35 36 35 35 33 31 28 26 27 29 31 29 27 29 30 30 30 31
9 5 3 16 19 21 9 13 10 3 12 18 22 25 30 29 31 31 29 27 26 24 23 24 28 35 34 31 30 31 32 30
8 9 3 9 11 12 10 0 3 1 3 17 21 24 25 26 28 30 31 29 27 26 26 28 29 34 38 39 38 38 38 37
21 15 14 14 13 13 13 7 10 10 8 8 16 20 25 26 27 27 25 26 26 25 25 25 22 27 33 38 41 43 43 43
27 26 27 24 23 19 20 19 12 10 14 11 14 14 14 23 20 21 21 19 17 16 16 18 19 22 22 22 27 32 35 34

GFSFLT2_700_spd_042.txt.gz
Wind_Speed
28 43 35 31 46 40 18 10 9 28 21 25 27 32 38 28 24 26 30 35 32 36 31 30 29 27 32 33 34 35 33 31
27 33 47 41 31 35 31 9 5 6 28 24 42 30 33 43 33 23 20 30 35 34 33 32 34 30 28 30 32 32 33 32
24 32 45 46 40 34 40 26 9 1 7 31 33 36 35 35 41 33 25 22 28 34 35 32 35 35 31 28 30 33 32 32
34 33 31 42 39 41 29 30 34 4 24 7 29 24 21 40 33 30 18 17 28 30 34 35 32 33 32 33 32 29 29 30
14 37 34 23 47 34 44 30 40 24 8 29 21 22 27 31 40 33 24 21 19 31 33 36 34 30 32 34 33 31 29 30
17 13 8 24 26 45 41 30 30 42 33 38 18 15 21 28 30 33 33 30 29 29 33 33 36 32 29 31 31 31 31 31
33 36 30 23 21 32 42 42 29 24 35 34 39 32 26 21 25 33 30 30 31 31 32 36 37 36 30 27 30 30 31 31
32 29 33 24 12 17 28 44 34 24 34 32 31 30 27 27 26 31 34 35 36 38 35 41 32 36 30 28 29 29 25 26
15 14 17 17 19 12 20 32 38 44 37 32 28 25 28 26 25 29 36 42 44 43 40 37 31 34 34 29 27 31 27 25
14 5 11 15 16 22 22 24 32 35 32 31 30 29 29 27 28 30 39 47 52 49 48 36 30 32 34 31 27 29 23 18
6 5 20 21 21 19 22 12 21 24 25 26 24 22 21 23 22 20 24 23 34 44 41 31 31 33 35 33 27 27 26 20
7 7 5 10 16 21 29 14 11 20 23 26 22 17 19 20 17 16 23 31 36 36 35 34 37 36 36 33 30 27 20 19
28 7 5 6 20 27 8 10 15 17 23 24 24 22 17 18 16 14 30 30 37 39 35 29 34 36 37 33 33 28 24 21
5 2 5 8 28 16 17 17 15 20 21 19 20 21 18 16 16 15 28 34 32 33 33 36 31 33 40 34 31 28 28 25
5 9 15 25 30 28 23 18 18 19 24 23 22 23 22 20 18 18 21 26 24 23 29 33 34 32 39 37 34 33 32 30
8 16 17 22 28 26 23 20 21 19 22 25 25 22 26 26 23 23 23 23 23 23 26 28 31 33 41 42 41 40 38 34
13 7 14 18 25 24 23 22 20 18 21 26 28 22 21 25 26 25 26 27 25 23 22 21 22 24 27 34 37 36 36 35
13 7 4 10 19 21 22 21 19 16 16 24 28 26 23 20 26 29 27 28 30 29 27 25 24 22 22 22 23 25 27 29
13 10 3 11 15 24 24 19 17 15 12 12 22 31 25 22 20 25 27 27 28 29 31 31 29 29 28 28 29 30 31 33

GFSFLT2_700_spd_045.txt.gz
Wind_Speed
15 29 26 27 34 33 20 9 14 25 32 28 27 30 41 29 36 29 27 26 26 31 33 24 27 26 31 31 33 34 33 33
23 20 30 36 26 27 28 18 19 9 27 24 37 28 32 42 38 30 27 28 26 27 29 31 27 28 26 32 32 31 33 33
18 14 17 29 28 29 30 35 11 16 13 19 31 38 46 31 39 38 30 21 18 25 26 26 31 28 29 31 32 35 34 34
23 29 28 18 27 41 32 32 40 29 24 7 16 17 30 45 34 35 37 34 23 23 29 29 28 30 28 30 34 34 34 35
18 18 27 33 31 37 41 40 38 25 26 24 12 20 25 28 33 39 33 33 25 25 32 33 30 32 33 31 34 34 35 35
20 22 10 17 18 26 31 45 39 39 34 36 25 20 23 23 30 33 37 31 29 24 29 34 30 30 33 34 33 35 34 33
20 28 34 36 36 30 25 34 38 39 33 36 39 24 17 21 29 31 32 33 34 31 25 29 38 33 34 33 31 36 38 36
26 31 32 38 43 38 31 38 33 23 23 29 29 29 36 33 29 26 26 31 35 34 28 25 30 35 35 33 31 34 35 36
31 23 24 33 46 36 26 26 37 42 27 22 25 24 25 25 24 25 27 29 33 35 33 30 27 35 33 32 31 32 32 31
30 25 11 19 23 31 18 21 38 37 42 33 26 25 22 24 25 24 26 31 35 36 40 37 30 35 35 34 32 32 28 30
12 13 22 19 23 35 22 18 33 37 41 41 38 31 29 29 26 25 24 27 36 41 42 42 37 34 35 32 35 32 28 28
17 10 5 19 30 35 28 11 25 40 37 37 31 29 31 29 24 23 22 27 39 43 47 46 44 36 38 35 32 31 28 29
31 17 19 8 24 30 9 13 17 22 30 35 35 29 26 25 23 22 21 23 38 45 52 54 49 42 39 36 34 31 31 28
22 12 13 7 28 18 20 22 23 21 25 27 24 19 16 21 24 21 14 18 25 32 39 45 50 40 37 38 37 34 31 27
3 1 6 23 32 33 28 24 25 25 27 30 25 21 17 12 15 14 12 17 24 28 34 42 40 36 34 41 40 39 33 30
2 6 12 22 31 32 29 28 26 27 28 29 29 24 20 17 13 12 15 22 25 29 32 32 31 30 31 41 38 41 37 34
22 11 7 13 27 30 28 27 26 28 27 28 28 30 24 22 20 17 17 20 24 27 27 28 29 34 39 41 40 33 39 38
19 20 8 6 23 26 25 23 23 24 27 30 26 25 26 24 23 22 21 21 22 25 25 25 27 29 32 38 46 47 43 42
16 14 10 5 14 23 23 22 21 20 24 24 28 24 21 25 24 24 22 23 24 25 27 27 26 26 27 25 26 35 35 33

GFSFLT2_700_spd_048.txt.gz
Wind_Speed
18 26 22 26 36 37 30 22 19 28 32 29 31 37 34 23 28 25 26 24 24 25 30 25 24 27 29 31 35 36 36 36
12 24 30 29 28 28 36 23 23 22 27 30 32 33 33 37 29 28 28 24 24 26 26 30 25 24 26 29 30 34 36 36
10 18 21 26 33 25 27 35 18 19 25 23 27 28 35 33 34 32 26 29 25 26 24 23 27 28 26 24 30 32 33 34
16 18 19 15 17 30 36 32 39 36 16 26 12 19 29 33 27 33 31 30 24 20 22 26 28 28 30 28 23 29 31 32
12 16 19 20 29 24 26 34 35 28 34 18 12 8 18 24 32 28 30 31 33 33 32 25 25 26 27 31 29 27 27 32
18 15 6 10 16 20 26 34 36 41 31 26 31 17 12 16 23 29 31 30 29 29 31 29 30 30 29 29 30 30 30 30
22 21 21 23 25 26 27 28 34 33 36 34 30 29 18 12 12 22 30 32 38 30 30 25 29 31 32 31 33 32 33 31
23 22 24 30 32 36 36 36 36 34 39 27 30 28 33 27 22 20 19 26 34 38 35 32 25 31 34 33 33 33 33 34
25 23 26 33 33 38 43 41 40 41 39 22 30 30 27 29 27 27 27 24 28 37 36 35 28 31 37 35 36 34 34 35
25 22 19 37 33 36 42 46 44 40 37 36 20 22 26 26 27 35 32 28 29 35 37 34 28 30 36 38 40 36 35 34
21 21 26 34 29 25 42 46 42 41 40 45 34 24 26 28 24 23 26 28 30 34 36 38 37 33 30 37 41 40 38 35
18 14 15 23 22 9 24 40 34 34 32 43 38 38 28 29 30 26 26 26 30 34 36 42 40 37 35 37 39 41 38 36
30 25 26 38 45 31 14 27 35 46 47 51 34 41 41 34 33 25 25 22 28 33 37 42 43 40 36 31 34 36 37 37
23 20 21 35 27 8 7 19 32 36 38 48 43 43 43 41 34 29 25 23 28 33 38 42 48 46 42 36 35 40 38 35
19 14 26 11 6 9 19 27 36 36 33 34 41 38 39 40 38 31 26 25 26 33 44 50 50 51 47 40 39 38 40 35
8 12 11 7 9 3 19 32 39 39 40 41 37 33 31 26 20 27 23 22 24 27 37 51 56 54 54 50 42 45 44 40
11 18 4 7 9 5 18 32 35 37 36 37 37 37 29 25 20 16 17 21 24 25 27 33 46 56 55 48 45 52 48 46
17 13 13 13 8 6 15 28 30 31 31 31 32 33 31 30 26 23 20 22 26 26 31 33 38 42 43 47 51 51 50 47
16 10 11 14 13 8 16 23 22 24 25 26 26 26 25 28 26 26 24 25 27 30 29 32 32 37 41 42 42 46 43 45